Farmville, Virginia, United States (23901)
Lat: 37.30N, Lon: 78.39W
Wx Zone: VAZ060
Local Info
Past Weather Observations for Today

NOTE: This archive is for the closest National Weather Service station to Farmville. Information may differ from the station used for current weather conditions.

Click here for Long-term Archive

Time Weather Temperature Dewpoint Humidity Pressure Winds Precip Visibility
15:15
Clear
61°F / 16°C 34°F / 1°C 36% 30.04 in
(1017 mb)
Calm - 10SM
14:55
Partly Cloudy
63°F / 17°C 34°F / 1°C 34% 30.04 in
(1017 mb)
Calm - 10SM
14:35
Mostly Cloudy
61°F / 16°C 37°F / 3°C 42% 30.04 in
(1017 mb)
Calm - 10SM
14:15
Partly Cloudy
59°F / 15°C 39°F / 4°C 48% 30.04 in
(1017 mb)
Calm - 10SM
13:55
Partly Cloudy
59°F / 15°C 37°F / 3°C 45% 30.04 in
(1017 mb)
Calm - 10SM
13:35
Mostly Cloudy
59°F / 15°C 37°F / 3°C 45% 30.04 in
(1017 mb)
Calm - 10SM
13:15
Mostly Cloudy
59°F / 15°C 39°F / 4°C 48% 30.04 in
(1017 mb)
Calm - 10SM
12:55
Mostly Cloudy
59°F / 15°C 39°F / 4°C 48% 30.04 in
(1017 mb)
Calm - 10SM
12:35
Mostly Cloudy
59°F / 15°C 37°F / 3°C 45% 30.06 in
(1018 mb)
Calm - 10SM
12:15
Overcast
59°F / 15°C 37°F / 3°C 45% 30.06 in
(1018 mb)
Calm - 10SM
11:55
Overcast
59°F / 15°C 39°F / 4°C 48% 30.09 in
(1019 mb)
NW 3.5 mph
(NW 6 kph)
- 10SM
11:35
Overcast
59°F / 15°C 37°F / 3°C 45% 30.06 in
(1018 mb)
Calm - 10SM
11:15
Overcast
59°F / 15°C 39°F / 4°C 48% 30.06 in
(1018 mb)
Calm - 10SM
10:55
Overcast
59°F / 15°C 39°F / 4°C 48% 30.06 in
(1018 mb)
SSW 3.5 mph
(SSW 6 kph)
- 10SM
10:35
Overcast
59°F / 15°C 39°F / 4°C 48% 30.06 in
(1018 mb)
Calm - 10SM
10:15
Overcast
59°F / 15°C 37°F / 3°C 45% 30.06 in
(1018 mb)
Calm - 10SM
09:55
Overcast
59°F / 15°C 39°F / 4°C 48% 30.06 in
(1018 mb)
W 3.5 mph
(W 6 kph)
- 10SM
09:35
Overcast
59°F / 15°C 39°F / 4°C 48% 30.04 in
(1017 mb)
Calm - 10SM
09:15
Overcast
59°F / 15°C 41°F / 5°C 51% 30.04 in
(1017 mb)
Calm - 10SM
08:55
Overcast
59°F / 15°C 43°F / 6°C 55% 30.04 in
(1017 mb)
Calm - 10SM
08:35
Overcast
59°F / 15°C 43°F / 6°C 55% 30.01 in
(1016 mb)
Calm - 10SM
08:15
Overcast
59°F / 15°C 43°F / 6°C 55% 30.01 in
(1016 mb)
Calm - 10SM
07:55
Overcast
59°F / 15°C 43°F / 6°C 55% 30.01 in
(1016 mb)
Calm - 10SM
07:35
Mostly Cloudy
59°F / 15°C 43°F / 6°C 55% 30.01 in
(1016 mb)
Calm - 10SM
07:15
Partly Cloudy
59°F / 15°C 45°F / 7°C 59% 29.98 in
(1015 mb)
Calm - 10SM
06:55
Clear
59°F / 15°C 46°F / 8°C 63% 29.98 in
(1015 mb)
W 3.5 mph
(W 6 kph)
- 10SM
06:35
Clear
59°F / 15°C 48°F / 9°C 68% 29.95 in
(1014 mb)
SSW 3.5 mph
(SSW 6 kph)
- 10SM
06:15
Clear
59°F / 15°C 50°F / 10°C 72% 29.95 in
(1014 mb)
Calm - 10SM
05:55
Clear
59°F / 15°C 52°F / 11°C 77% 29.92 in
(1013 mb)
Calm - 10SM
05:35
Clear
61°F / 16°C 61°F / 16°C 100% 29.92 in
(1013 mb)
SSW 3.5 mph
(SSW 6 kph)
- 10SM
05:15
Clear
61°F / 16°C 61°F / 16°C 100% 29.92 in
(1013 mb)
Calm - 10SM
04:55
Clear
61°F / 16°C 61°F / 16°C 100% 29.92 in
(1013 mb)
Calm - 10SM
04:35
Clear
61°F / 16°C 61°F / 16°C 100% 29.92 in
(1013 mb)
SW 4.6 mph
(SW 7 kph)
- 10SM
04:15
Clear
63°F / 17°C 63°F / 17°C 100% 29.92 in
(1013 mb)
SW 4.6 mph
(SW 7 kph)
- 10SM
03:55
Clear
63°F / 17°C 59°F / 15°C 88% 29.92 in
(1013 mb)
SSE 5.8 mph
(SSE 9 kph)
- 10SM
03:35
Clear
64°F / 18°C 61°F / 16°C 88% 29.89 in
(1012 mb)
SW 4.6 mph
(SW 7 kph)
- 10SM
03:15
Clear
64°F / 18°C 61°F / 16°C 88% 29.89 in
(1012 mb)
SW 5.8 mph
(SW 9 kph)
- 10SM
02:55
Clear
66°F / 19°C 61°F / 16°C 83% 29.89 in
(1012 mb)
SW 5.8 mph
(SW 9 kph)
- 10SM
02:35
Clear
66°F / 19°C 61°F / 16°C 83% 29.89 in
(1012 mb)
SW 8.1 mph
(SW 13 kph)
- 10SM
02:15
Clear
66°F / 19°C 61°F / 16°C 83% 29.86 in
(1011 mb)
SW 5.8 mph
(SW 9 kph)
- 10SM
01:55
Clear
66°F / 19°C 61°F / 16°C 83% 29.83 in
(1010 mb)
SW 8.1 mph
(SW 13 kph)
- 10SM
01:35
Partly Cloudy
66°F / 19°C 61°F / 16°C 83% 29.83 in
(1010 mb)
SW 9.2 mph
(SW 15 kph)
- 10SM
01:15
Clear
66°F / 19°C 63°F / 17°C 88% 29.83 in
(1010 mb)
SW 9.2 mph
(SW 15 kph)
- 10SM
00:55
Clear
66°F / 19°C 63°F / 17°C 88% 29.83 in
(1010 mb)
SW 9.2 mph
(SW 15 kph)
- 10SM
00:35
Clear
68°F / 20°C 63°F / 17°C 83% 29.83 in
(1010 mb)
SW 10.4 mph
(SW 17 kph)
- 10SM
00:15
Clear
68°F / 20°C 63°F / 17°C 83% 29.83 in
(1010 mb)
SW 10.4 mph
(SW 17 kph)
- 10SM
Time Weather Temperature Dewpoint Humidity Pressure Winds Precip Visibility


Weather for websites

WeatherForYou.com, LLC is not responsible for any damages or problems caused by this service. Current weather conditions are obtained from the closest station including government and personal stations which may have varying degrees of accuracy. Weather forecasts are derived from the NOAA NDFD. Like all things, this site belongs to Jesus Christ... He just trusts me to maintain it. If you have any questions or comments email webmaster@weatherforyou.com

Copyright © 2014, WeatherForYou.com LLC. All rights reserved.